Weather in Bagdod

Uzbekistan     40°27′40″N   71°12′43″E
temp.,
°C
wind,
m/s
gust,
m/s
humid.,
%
clouds,
%
prec.,
mm/h
press.,
hPa
HPBL,
m
14 june, mon
mon1423:00+22ne47410 0.0 1007184
02:00+21nne35460 0.0 1007147
05:00+20se11494 0.0 100824
08:00+24nne22355 0.0 1008559
11:00+30ne22240 0.0 10061396
14:00+33wnw23160 0.0 10032500
17:00+34w44140 0.0 10012823
20:00+25ene26320 0.1 1005272
15 june, tue
tue1523:00+24ese123230 0.1 100519
02:00+22ne25390 0.0 1005127
05:00+20e124598 0.0 100630
08:00+25nne223199 0.0 1007441
11:00+30nne3222100 0.0 10051586
14:00+33ene231594 0.0 10022991
17:00+34nw751378 0.0 10022351
20:00+29wsw2315100 0.0 100263
16 june, wed
wed1623:00+27sw22205 0.0 100325
02:00+23n12273 0.0 100325
05:00+21nne12365 0.0 100520
08:00+27nw22240 0.0 1006485
11:00+33nw32130 0.0 10041865
14:00+35wnw35100 0.0 10023653
17:00+35w3573 0.0 10013612
20:00+30w351143 0.0 100381
17 june, thu
thu1723:00+25se343148 0.0 100580
02:00+23ne22364 0.0 100417
05:00+21ene11384 0.0 100528
08:00+27nne33252 0.0 1006449
11:00+32nnw22170 0.0 10041563
14:00+35w37100 0.0 10023507
17:00+36wsw45827 0.0 10013807
20:00+30sw59163 0.0 1002187
18 june, fri
fri1823:00+27ssw36222 0.0 1004105
02:00+26w222312 0.0 100432
05:00+22nw22292 0.0 100531
08:00+28nnw34220 0.0 1006468
11:00+34wnw46140 0.0 10041754
14:00+38wnw5980 0.0 10023524
17:00+38wsw81060 0.0 10013603
20:00+33wsw713110 0.0 1002339